Torna al catalogo

SL-3 R/B

AttivoPO
NORAD 11166·ROCKET BODY·🇷🇺 Russia

Lanciato Dec 23, 1978 da Plesetsk Cosmodrome

Loading…

Prossimi Passaggi (prossime 24 ore)

TLE

AggiornatoSource: Space-Track

Epoca: Sep 14, 2026, 14:27 UTC

1 11166U 78121B   26257.60254142 -.00000060  00000-0 -37354-4 0  9994
2 11166  81.2370 113.1094 0066162   8.7890 351.4424 14.14284937460859

Traccia SL-3 R/B in tempo reale con AllMySat

Download on the App Store